TimeCST,TemperatureF,Dew PointF,Humidity,Sea Level PressureIn,VisibilityMPH,Wind Direction,Wind SpeedMPH,Gust SpeedMPH,PrecipitationIn,Events,Conditions,WindDirDegrees,DateUTC
12:15 AM,17.6,17.6,100,30.00,0.2,Calm,Calm,-,N/A,Fog,Light Freezing Fog,0,2012-11-18 06:15:00
12:35 AM,17.6,17.6,100,30.00,0.2,Calm,Calm,-,N/A,Fog,Light Freezing Fog,0,2012-11-18 06:35:00
12:55 AM,17.6,17.6,100,30.00,0.2,NW,3.5,-,N/A,Fog,Light Freezing Fog,310,2012-11-18 06:55:00
1:15 AM,17.6,17.6,100,29.99,0.2,Calm,Calm,-,N/A,Fog,Light Freezing Fog,0,2012-11-18 07:15:00
1:35 AM,17.6,17.6,100,29.99,0.2,Calm,Calm,-,N/A,Fog,Light Freezing Fog,0,2012-11-18 07:35:00
1:55 AM,17.6,17.6,100,29.98,0.2,Calm,Calm,-,N/A,Fog,Light Freezing Fog,0,2012-11-18 07:55:00
2:15 AM,17.6,17.6,100,29.99,0.2,Calm,Calm,-,N/A,Fog,Light Freezing Fog,0,2012-11-18 08:15:00
2:35 AM,17.6,17.6,100,29.98,0.2,SE,3.5,-,N/A,Fog,Light Freezing Fog,130,2012-11-18 08:35:00
2:55 AM,17.6,17.6,100,29.98,0.2,East,3.5,-,N/A,Fog,Light Freezing Fog,100,2012-11-18 08:55:00
3:15 AM,17.6,17.6,100,29.97,0.2,Calm,Calm,-,N/A,Fog,Light Freezing Fog,0,2012-11-18 09:15:00
3:35 AM,17.6,17.6,100,29.97,0.2,ESE,4.6,-,N/A,Fog,Light Freezing Fog,120,2012-11-18 09:35:00
3:55 AM,17.6,15.8,93,29.97,0.5,ESE,4.6,-,N/A,Fog,Light Freezing Fog,120,2012-11-18 09:55:00
4:15 AM,15.8,15.8,100,29.97,0.5,SE,5.8,-,N/A,Fog,Light Freezing Fog,130,2012-11-18 10:15:00
4:35 AM,17.6,15.8,93,29.97,0.5,ESE,3.5,-,N/A,Fog,Light Freezing Fog,120,2012-11-18 10:35:00
4:55 AM,17.6,17.6,100,29.96,0.8,Calm,Calm,-,N/A,,Overcast,0,2012-11-18 10:55:00
5:15 AM,17.6,17.6,100,29.96,1.8,Calm,Calm,-,N/A,,Overcast,0,2012-11-18 11:15:00
5:35 AM,17.6,17.6,100,29.96,2.5,Calm,Calm,-,N/A,,Overcast,0,2012-11-18 11:35:00
5:55 AM,17.6,17.6,100,29.96,3.0,Calm,Calm,-,N/A,,Overcast,0,2012-11-18 11:55:00
6:15 AM,19.4,17.6,93,29.96,0.5,Calm,Calm,-,N/A,Fog,Light Freezing Fog,0,2012-11-18 12:15:00
6:35 AM,19.4,19.4,100,29.95,0.2,East,4.6,-,N/A,Fog,Light Freezing Fog,80,2012-11-18 12:35:00
6:55 AM,19.4,19.4,100,29.94,0.2,Calm,Calm,-,N/A,Fog,Light Freezing Fog,0,2012-11-18 12:55:00
7:15 AM,19.4,19.4,100,29.94,0.2,Calm,Calm,-,N/A,Fog,Light Freezing Fog,0,2012-11-18 13:15:00
7:35 AM,19.4,19.4,100,29.94,2.0,East,5.8,-,N/A,,Overcast,90,2012-11-18 13:35:00
7:55 AM,19.4,19.4,100,29.94,0.2,ESE,3.5,-,N/A,Fog,Light Freezing Fog,110,2012-11-18 13:55:00
8:15 AM,19.4,19.4,100,29.94,0.2,SE,4.6,-,N/A,Fog,Light Freezing Fog,130,2012-11-18 14:15:00
8:35 AM,19.4,19.4,100,29.94,0.2,ESE,4.6,-,N/A,Fog,Light Freezing Fog,120,2012-11-18 14:35:00
8:55 AM,19.4,19.4,100,29.94,0.2,ESE,4.6,-,N/A,Fog,Light Freezing Fog,120,2012-11-18 14:55:00
9:15 AM,19.4,19.4,100,29.94,0.2,SE,4.6,-,N/A,Fog,Light Freezing Fog,130,2012-11-18 15:15:00
9:35 AM,21.2,21.2,100,29.93,0.2,ESE,4.6,-,N/A,Fog,Light Freezing Fog,110,2012-11-18 15:35:00
9:55 AM,23.0,23.0,100,29.93,0.2,East,6.9,-,N/A,Fog,Light Freezing Fog,90,2012-11-18 15:55:00
10:15 AM,24.8,24.8,100,29.93,0.5,Calm,Calm,-,N/A,Fog,Light Freezing Fog,0,2012-11-18 16:15:00
10:35 AM,26.6,26.6,100,29.93,0.8,Calm,Calm,-,N/A,,Overcast,0,2012-11-18 16:35:00
10:55 AM,26.6,26.6,100,29.93,1.8,Calm,Calm,-,N/A,,Overcast,0,2012-11-18 16:55:00
11:15 AM,26.6,26.6,100,29.93,0.2,Calm,Calm,-,N/A,Fog,Light Freezing Fog,0,2012-11-18 17:15:00
11:35 AM,26.6,26.6,100,29.93,0.2,Calm,Calm,-,N/A,Fog,Light Freezing Fog,0,2012-11-18 17:35:00
11:55 AM,30.2,30.2,100,29.92,1.8,Calm,Calm,-,N/A,Rain,Freezing Rain,0,2012-11-18 17:55:00
12:15 PM,30.2,30.2,100,29.91,3.0,Calm,Calm,-,N/A,Rain,Freezing Rain,0,2012-11-18 18:15:00
12:35 PM,32.0,32.0,100,29.89,4.0,Calm,Calm,-,N/A,,Clear,0,2012-11-18 18:35:00
12:55 PM,32.0,32.0,100,29.89,4.0,Calm,Calm,-,N/A,,Clear,0,2012-11-18 18:55:00
1:15 PM,32.0,32.0,100,29.88,5.0,Calm,Calm,-,N/A,,Clear,0,2012-11-18 19:15:00
1:35 PM,32.0,32.0,100,29.88,5.0,ESE,3.5,-,N/A,,Clear,110,2012-11-18 19:35:00
1:55 PM,32.0,32.0,100,29.87,5.0,East,4.6,-,N/A,,Clear,90,2012-11-18 19:55:00
2:15 PM,32.0,32.0,100,29.86,5.0,East,6.9,-,N/A,,Clear,80,2012-11-18 20:15:00
2:35 PM,32.0,32.0,100,29.86,5.0,East,8.1,-,N/A,,Clear,90,2012-11-18 20:35:00
2:55 PM,32.0,32.0,100,29.86,5.0,East,8.1,-,N/A,,Clear,100,2012-11-18 20:55:00
3:15 PM,32.0,32.0,100,29.87,3.0,SE,6.9,-,N/A,,Clear,130,2012-11-18 21:15:00
3:35 PM,32.0,32.0,100,29.87,3.0,ESE,5.8,-,N/A,,Clear,110,2012-11-18 21:35:00
3:55 PM,32.0,32.0,100,29.86,3.0,East,8.1,-,N/A,,Clear,100,2012-11-18 21:55:00
4:15 PM,32.0,32.0,100,29.87,3.0,ESE,6.9,-,N/A,,Clear,110,2012-11-18 22:15:00
4:35 PM,30.2,30.2,100,29.86,2.5,ESE,8.1,-,N/A,,Clear,110,2012-11-18 22:35:00
4:55 PM,30.2,30.2,100,29.86,3.0,ESE,8.1,-,N/A,,Clear,120,2012-11-18 22:55:00
5:15 PM,28.4,28.4,100,29.86,2.0,ESE,11.5,-,N/A,,Clear,120,2012-11-18 23:15:00
5:35 PM,28.4,28.4,100,29.86,3.0,ESE,11.5,-,N/A,,Clear,120,2012-11-18 23:35:00
5:55 PM,28.4,28.4,100,29.86,3.0,ESE,9.2,-,N/A,,Clear,110,2012-11-18 23:55:00
6:15 PM,30.2,30.2,100,29.86,3.0,ESE,10.4,-,N/A,,Clear,120,2012-11-19 00:15:00
6:35 PM,28.4,28.4,100,29.86,3.0,ESE,10.4,-,N/A,,Clear,120,2012-11-19 00:35:00
6:55 PM,28.4,28.4,100,29.85,2.5,ESE,10.4,-,N/A,,Clear,110,2012-11-19 00:55:00
7:15 PM,28.4,28.4,100,29.85,3.0,ESE,10.4,-,N/A,,Clear,120,2012-11-19 01:15:00
7:35 PM,28.4,28.4,100,29.86,3.0,ESE,6.9,-,N/A,,Clear,120,2012-11-19 01:35:00
7:55 PM,26.6,26.6,100,29.85,2.0,SE,9.2,-,N/A,,Clear,140,2012-11-19 01:55:00
8:15 PM,26.6,26.6,100,29.85,2.0,SE,8.1,-,N/A,,Clear,140,2012-11-19 02:15:00
8:35 PM,26.6,26.6,100,29.86,1.0,SE,8.1,-,N/A,,Clear,140,2012-11-19 02:35:00
8:55 PM,28.4,28.4,100,29.86,0.2,SSE,6.9,-,N/A,Fog,Light Freezing Fog,150,2012-11-19 02:55:00
9:15 PM,26.6,26.6,100,29.86,0.2,SE,4.6,-,N/A,Fog,Light Freezing Fog,130,2012-11-19 03:15:00
9:35 PM,26.6,26.6,100,29.85,0.2,SE,8.1,-,N/A,Fog,Light Freezing Fog,140,2012-11-19 03:35:00
9:55 PM,24.8,24.8,100,29.85,0.2,SE,6.9,-,N/A,Fog,Light Freezing Fog,140,2012-11-19 03:55:00
10:35 PM,24.8,24.8,100,29.85,0.2,SSE,4.6,-,N/A,Fog,Light Freezing Fog,160,2012-11-19 04:35:00
11:15 PM,23.0,23.0,100,29.84,0.2,South,3.5,-,N/A,Fog,Light Freezing Fog,190,2012-11-19 05:15:00
11:35 PM,23.0,23.0,100,29.84,0.2,SW,3.5,-,N/A,Fog,Light Freezing Fog,220,2012-11-19 05:35:00
11:55 PM,23.0,23.0,100,29.84,0.2,West,4.6,-,N/A,Fog,Light Freezing Fog,260,2012-11-19 05:55:00